{"data":{"norad_id":53499,"intl_designator":"2022-099AL","name":"STARLINK-4454","alt_names":[],"object_type":"PAYLOAD","status":"ACTIVE","operator":null,"country":"US","launch_date":"2022-08-12","launch_site_code":"AFWTR","launch_vehicle":null,"mission":null,"orbit_class":"UNKNOWN","rcs_meters":null,"size_class":null,"mass_kg":null,"dimensions":null,"purposes":["comms"],"wikipedia_slug":null,"has_3d_model":false,"image_url":null,"decayed_at":null,"tle_current":{"epoch":"2026-09-20T22:00:03.000096Z","epoch_age_seconds":43025,"freshness":"FRESH","line1":"1 53499U 22099AL  26263.91670139  .00414908  67979-4  12757-2 0  9999","line2":"2 53499  97.6009  33.4536 0001333  89.7340  41.5922 15.91808256  5821","mean_motion":15.91808256,"eccentricity":0.0001333,"inclination_deg":97.6009,"raan_deg":33.4536,"arg_perigee_deg":89.734,"mean_anomaly_deg":41.5922,"bstar":0.0012757,"rev_number":582,"period_min":90.463156889167,"perigee_km":296.3328781812,"apogee_km":298.11252907819,"semimajor_km":6675.3597036297,"source":"CELESTRAK","updated_at":"2026-09-21T09:00:32.895695Z"}}}